Weather History for Medicine Lodge, KS

Change the Weather History Date:

Wednesday, February 20, 2013

  Actual Average Record
Temperature  
Mean Temperature 31 °F 40 °F  
Max Temperature 36 °F 52 °F 86 °F (1981)
Min Temperature 26 °F 27 °F 4 °F (1918)
Degree Days  
Heating Degree Days 34 26  
Month to date heating degree days 529 559  
Since 1 July heating degree days 2967 3336  
Cooling Degree Days 0 0  
Month to date cooling degree days 0 0  
Year to date cooling degree days 0 0  
Moisture  
Dew Point 26 °F    
Average Humidity 72    
Maximum Humidity 100    
Minimum Humidity 43    
Precipitation  
Precipitation 0.86 in 0.04 in 0.86 in (2013)
Month to date precipitation 1.11 0.67  
Year to date precipitation 1.67 1.38  
Snow  
Snow 0.00 in 0.00 in - ()
Month to date snowfall 0.0 1.8  
Since 1 July snowfall 1.0 8.0  
Snow Depth 0.00 in    
Sea Level Pressure  
Sea Level Pressure 30.09 in    
Wind  
Wind Speed 12 mph (ESE)    
Max Wind Speed 20 mph    
Max Gust Speed 28 mph    
T = Trace of Precipitation, MM = Missing Value Source: NWS Daily Summary

Daily Weather History Graph

Daily Weather History Graph

Search for Another Location

Airport:

Trip Planner

Search our weather history database for the weather conditions in past years. The results will help you decide how hot, cold, wet, or windy it might be!

Date:

Astronomy

Feb. 20, 2013 Rise Set
Actual Time 7:16 AM CST 6:19 PM CST
Civil Twilight 6:50 AM CST 6:45 PM CST
Nautical Twilight 6:20 AM CST 7:16 PM CST
Astronomical Twilight 5:49 AM CST 7:46 PM CST
Moon 1:45 PM CST 3:34 AM CST
Length of Visible Light 11h 55m
Length of Day
11h 02m
Waxing Gibbous, 76% of the Moon is Illuminated
Feb 20
Waxing Gibbous
Feb 25
Full
Mar 4
Last Quarter
Mar 11
New
Mar 19
First Quarter

Hourly Weather History & Observations

Time (CST) Temp. Windchill Dew Point Humidity Pressure Visibility Wind Dir Wind Speed Gust Speed Precip Events Conditions
12:56 AM 35.1 °F 26.9 °F 17.1 °F 48% 30.19 in - East 11.5 mph - N/A   Unknown
1:56 AM 35.1 °F 26.4 °F 17.1 °F 48% 30.17 in - East 12.7 mph 20.7 mph N/A   Unknown
2:56 AM 34.0 °F 28.0 °F 15.1 °F 46% 30.18 in - ESE 6.9 mph 16.1 mph N/A   Unknown
3:56 AM 33.1 °F 26.9 °F 14.0 °F 46% 30.19 in - SE 6.9 mph - N/A   Unknown
4:56 AM 28.0 °F 16.5 °F 26.1 °F 92% 30.19 in - SE 15.0 mph 23.0 mph 0.01 in   Unknown
5:56 AM 27.0 °F 16.1 °F 26.1 °F 96% 30.17 in - East 12.7 mph 18.4 mph 0.16 in   Unknown
6:56 AM 27.0 °F 16.1 °F 26.1 °F 96% 30.16 in - East 12.7 mph 20.7 mph 0.09 in   Unknown
7:56 AM 26.1 °F 15.6 °F 25.0 °F 96% 30.18 in - East 11.5 mph 20.7 mph 0.06 in   Unknown
8:56 AM 26.1 °F 14.0 °F 25.0 °F 96% 30.19 in - East 15.0 mph 21.9 mph 0.12 in   Unknown
9:56 AM 26.1 °F 14.5 °F 25.0 °F 96% 30.16 in - ESE 13.8 mph 25.3 mph 0.11 in   Unknown
10:56 AM 27.0 °F 16.1 °F 25.0 °F 92% 30.15 in - ESE 12.7 mph 21.9 mph 0.09 in   Unknown
11:56 AM 28.9 °F 19.2 °F 27.0 °F 92% 30.12 in - ESE 11.5 mph 25.3 mph 0.05 in   Unknown
12:56 PM 30.0 °F 20.0 °F 28.0 °F 92% 30.09 in - ESE 12.7 mph 24.2 mph 0.02 in   Unknown
1:56 PM 30.9 °F 21.7 °F 30.0 °F 96% 30.06 in - ESE 11.5 mph 24.2 mph N/A   Unknown
2:56 PM 30.9 °F 20.2 °F 30.0 °F 96% 30.04 in - SSE 15.0 mph 23.0 mph N/A   Unknown
3:56 PM 30.9 °F 21.7 °F 30.0 °F 96% 30.03 in - SE 11.5 mph 23.0 mph N/A   Unknown
4:56 PM 30.9 °F 22.8 °F 30.9 °F 100% 30.01 in - ESE 9.2 mph 17.3 mph N/A   Unknown
5:56 PM 30.9 °F 22.2 °F 30.0 °F 96% 29.99 in - ESE 10.4 mph 21.9 mph 0.03 in   Unknown
6:56 PM 30.0 °F 20.0 °F 28.9 °F 96% 30.00 in - ESE 12.7 mph 19.6 mph 0.09 in   Unknown
7:56 PM 30.0 °F 20.5 °F 28.9 °F 96% 30.01 in - ESE 11.5 mph 21.9 mph 0.01 in   Unknown
8:56 PM 30.0 °F 20.0 °F 30.0 °F 100% 29.99 in - ESE 12.7 mph 24.2 mph 0.01 in   Unknown
9:56 PM 30.9 °F 21.2 °F 30.0 °F 96% 30.00 in - ESE 12.7 mph 24.2 mph N/A   Unknown
10:56 PM 30.9 °F 20.7 °F 30.0 °F 96% 29.98 in - ESE 13.8 mph 23.0 mph N/A   Unknown
11:56 PM 28.0 °F 17.0 °F 28.0 °F 100% 29.98 in - East 13.8 mph 20.7 mph N/A   Unknown